Location: Pasadena, ca
(34.1243°N, 118.1037°W)
Time: 09:38:52
(UTC-08:00)

OTV 5 (USA 277) - Visible Passes

Search period start: 19 February 2018 00:00
Search period end: 01 March 2018 00:00
Orbit: 404 x 417 km, 43.0° (Epoch: 07 September)

Date Brightness Start Highest point End Pass type
(mag) Time Alt. Az. Time Alt. Az. Time Alt. Az.
19 Feb ? 04:43:50 17° SSE 04:44:33 18° SE 04:46:52 10° E visible
20 Feb ? 05:28:32 22° WSW 05:30:32 87° SSE 05:33:50 10° ENE visible
21 Feb ? 04:40:16 40° E 04:40:16 40° E 04:42:43 10° ENE visible
22 Feb ? 05:24:37 28° WNW 05:25:47 38° NNW 05:28:53 10° NE visible
23 Feb ? 04:36:06 29° NE 04:36:06 29° NE 04:37:54 10° NE visible
24 Feb ? 05:20:15 20° NW 05:21:11 23° NNW 05:23:52 10° NE visible
25 Feb ? 04:31:35 19° NNE 04:31:35 19° NNE 04:32:54 10° NE visible
26 Feb ? 05:15:37 15° NNW 05:16:43 17° N 05:19:02 10° NE visible
27 Feb ? 04:26:53 15° NNE 04:26:53 15° NNE 04:27:56 10° NE visible
28 Feb ? 05:10:53 14° NNW 05:12:17 17° N 05:14:35 10° NE visible
